User: anonymous   Login
Location: Wildlife_Club
(35.6000°N, 81.4330°W)
Time: 02:29:27
(UTC-04:00)
Language:

Cosmos 1782 - Orbit

View from above orbital plane
View from above orbital plane
View from above satellite
View from above satellite

Ground track
Ground track

The orbit data is extracted from the following two-line orbital elements,

1 16986U 86074A   16239.85197912  .00000130  00000-0  69011-5 0  9994
2 16986  82.5052  47.4820 0009202 264.6658  95.3520 15.06203470626544
Epoch (UTC): 26 August 2016 20:26:50
Eccentricity: 0.0009202
inclination: 82.5052°
perigee height: 541 km
apogee height: 554 km
right ascension of ascending node: 47.4820°
argument of perigee: 264.6658°
revolutions per day: 15.06203470
mean anomaly at epoch: 95.3520°
orbit number at epoch: 62654

The dashed part of the orbit path shows where the satellite is in the earth's shadow,  

DLR